AAL2255 KLAX-KPHX

Flight info

Callsign AAL2255
Flight time 1h 3m
Altitude 37000
Route DOTSS2 CNERY DCT BLH HYDRR1
Aircraft B738/M-SDE2E3FGHIRWXY/LB1

Departure

Time 2026-05-04 10:25
Airport Los Angeles International Airport (KLAX)

Arrival

Time 2026-05-04 11:28
Airport Phoenix Sky Harbor International Airport (KPHX)
Time Latitude Longitude Altitude Speed Heading
2026-05-04 09:46 33.94150 -118.40637 95 ft 0 kts 263°
2026-05-04 10:09 33.94150 -118.40614 91 ft 4 kts 294°
2026-05-04 10:09 33.94146 -118.40590 92 ft 4 kts 258°
2026-05-04 10:10 33.94155 -118.40568 92 ft 4 kts 186°
2026-05-04 10:10 33.94173 -118.40572 91 ft 0 kts 160°
2026-05-04 10:13 33.94157 -118.40569 93 ft 5 kts 176°
2026-05-04 10:13 33.94110 -118.40565 94 ft 8 kts 176°
2026-05-04 10:13 33.94057 -118.40558 94 ft 8 kts 173°
2026-05-04 10:13 33.94004 -118.40550 94 ft 7 kts 173°
2026-05-04 10:14 33.93953 -118.40543 94 ft 7 kts 173°
2026-05-04 10:14 33.93904 -118.40535 94 ft 7 kts 173°
2026-05-04 10:16 33.93867 -118.40108 97 ft 15 kts 83°
2026-05-04 10:16 33.93880 -118.39980 95 ft 16 kts 83°
2026-05-04 10:16 33.93894 -118.39840 95 ft 17 kts 83°
2026-05-04 10:16 33.93909 -118.39699 94 ft 17 kts 83°
2026-05-04 10:17 33.93923 -118.39563 94 ft 16 kts 82°
2026-05-04 10:17 33.93937 -118.39432 95 ft 15 kts 83°
2026-05-04 10:19 33.94014 -118.38675 94 ft 12 kts 83°
2026-05-04 10:19 33.94023 -118.38579 94 ft 11 kts 83°
2026-05-04 10:19 33.94033 -118.38487 95 ft 11 kts 83°
2026-05-04 10:19 33.94042 -118.38398 95 ft 9 kts 83°
2026-05-04 10:20 33.94042 -118.38351 95 ft 2 kts 111°
2026-05-04 10:20 33.94039 -118.38346 98 ft 0 kts 122°
2026-05-04 10:22 33.94039 -118.38345 98 ft 0 kts 122°
2026-05-04 10:22 33.94021 -118.38333 96 ft 6 kts 164°
2026-05-04 10:22 33.93981 -118.38325 98 ft 6 kts 171°
2026-05-04 10:23 33.93952 -118.38350 99 ft 6 kts 244°
2026-05-04 10:23 33.93948 -118.38372 98 ft 0 kts 263°
2026-05-04 10:25 33.93655 -118.41202 267 ft 169 kts 262°
2026-05-04 10:25 33.93507 -118.42632 891 ft 176 kts 263°
2026-05-04 10:25 33.93367 -118.44116 1613 ft 178 kts 264°
2026-05-04 10:25 33.93242 -118.45559 2523 ft 167 kts 265°
2026-05-04 10:26 33.93086 -118.46923 3171 ft 176 kts 250°
2026-05-04 10:26 33.92213 -118.48120 3419 ft 202 kts 219°
2026-05-04 10:26 33.91072 -118.49271 3584 ft 225 kts 223°
2026-05-04 10:26 33.89951 -118.50679 3841 ft 245 kts 230°
2026-05-04 10:27 33.88818 -118.52268 4313 ft 257 kts 231°
2026-05-04 10:27 33.87656 -118.53924 5108 ft 260 kts 231°
2026-05-04 10:27 33.86337 -118.55410 5848 ft 266 kts 211°
2026-05-04 10:27 33.84540 -118.55984 6606 ft 273 kts 182°
2026-05-04 10:28 33.82618 -118.55655 7365 ft 277 kts 170°
2026-05-04 10:28 33.80732 -118.55122 8076 ft 280 kts 169°
2026-05-04 10:28 33.78858 -118.54582 8782 ft 282 kts 170°
2026-05-04 10:28 33.76942 -118.54044 9514 ft 284 kts 171°
2026-05-04 10:29 33.75006 -118.53513 10207 ft 287 kts 171°
2026-05-04 10:29 33.72997 -118.52972 10428 ft 307 kts 172°
2026-05-04 10:29 33.70912 -118.52105 10695 ft 330 kts 152°
2026-05-04 10:29 33.69232 -118.50152 11267 ft 346 kts 126°
2026-05-04 10:30 33.68241 -118.47484 11955 ft 354 kts 113°
2026-05-04 10:30 33.67447 -118.44662 12580 ft 359 kts 112°
2026-05-04 10:30 33.66649 -118.41795 13214 ft 364 kts 113°
2026-05-04 10:30 33.65816 -118.38905 13878 ft 368 kts 114°
2026-05-04 10:31 33.64956 -118.35987 14444 ft 374 kts 115°
2026-05-04 10:31 33.64341 -118.32906 14936 ft 390 kts 97°
2026-05-04 10:32 33.64460 -118.12531 18247 ft 426 kts 94°
2026-05-04 10:33 33.64461 -118.08969 18718 ft 431 kts 95°
2026-05-04 10:33 33.64458 -118.05365 19232 ft 434 kts 95°
2026-05-04 10:33 33.64454 -118.01728 19767 ft 437 kts 95°
2026-05-04 10:33 33.64449 -117.98071 20271 ft 441 kts 95°
2026-05-04 10:34 33.64443 -117.94391 20772 ft 445 kts 96°
2026-05-04 10:34 33.64436 -117.90664 21261 ft 448 kts 96°
2026-05-04 10:34 33.64429 -117.86915 21755 ft 451 kts 96°
2026-05-04 10:34 33.64419 -117.83140 22224 ft 455 kts 96°
2026-05-04 10:35 33.64350 -117.79385 22668 ft 454 kts 103°
2026-05-04 10:35 33.63670 -117.75744 23106 ft 445 kts 115°
2026-05-04 10:35 33.62761 -117.72199 23585 ft 446 kts 117°
2026-05-04 10:35 33.61822 -117.68636 23978 ft 449 kts 117°
2026-05-04 10:36 33.60885 -117.65049 24358 ft 453 kts 116°
2026-05-04 10:36 33.59958 -117.61424 24725 ft 457 kts 116°
2026-05-04 10:36 33.59036 -117.57759 25088 ft 460 kts 116°
2026-05-04 10:36 33.58416 -117.55266 25345 ft 462 kts 116°
2026-05-04 10:37 33.57513 -117.51612 25734 ft 465 kts 116°
2026-05-04 10:37 33.56591 -117.47886 26093 ft 468 kts 116°
2026-05-04 10:37 33.55661 -117.44129 26415 ft 472 kts 116°
2026-05-04 10:37 33.54723 -117.40349 26752 ft 475 kts 116°
2026-05-04 10:39 33.50177 -117.16760 28641 ft 510 kts 97°
2026-05-04 10:39 33.50179 -117.12509 28995 ft 512 kts 96°
2026-05-04 10:39 33.50193 -117.08240 29297 ft 514 kts 97°
2026-05-04 10:40 33.50189 -117.03944 29573 ft 517 kts 97°
2026-05-04 10:40 33.50159 -116.99623 29856 ft 519 kts 98°
2026-05-04 10:40 33.50109 -116.95288 30143 ft 521 kts 98°
2026-05-04 10:40 33.50046 -116.90936 30379 ft 524 kts 98°
2026-05-04 10:41 33.49975 -116.86558 30539 ft 527 kts 97°
2026-05-04 10:41 33.49903 -116.82176 30882 ft 526 kts 97°
2026-05-04 10:41 33.49832 -116.77789 31167 ft 527 kts 97°
2026-05-04 10:41 33.49759 -116.73383 31327 ft 531 kts 97°
2026-05-04 10:42 33.49684 -116.68942 31475 ft 534 kts 97°
2026-05-04 10:42 33.49608 -116.64483 31692 ft 536 kts 97°
2026-05-04 10:42 33.49533 -116.60029 31976 ft 536 kts 97°
2026-05-04 10:42 33.49456 -116.55562 32252 ft 536 kts 97°
2026-05-04 10:43 33.49375 -116.51089 32395 ft 540 kts 97°
2026-05-04 10:44 33.48872 -116.19656 34065 ft 545 kts 97°
2026-05-04 10:45 33.48798 -116.15107 34162 ft 549 kts 97°
2026-05-04 10:45 33.48724 -116.10521 34338 ft 550 kts 97°
2026-05-04 10:45 33.48655 -116.05878 34597 ft 550 kts 95°
2026-05-04 10:45 33.49042 -116.01299 34794 ft 558 kts 77°
2026-05-04 10:46 33.50259 -115.96877 35025 ft 559 kts 70°
2026-05-04 10:46 33.51608 -115.92577 35245 ft 558 kts 69°
2026-05-04 10:46 33.52980 -115.88236 35469 ft 558 kts 69°
2026-05-04 10:46 33.54326 -115.83868 35680 ft 558 kts 70°
2026-05-04 10:47 33.55634 -115.79488 35901 ft 558 kts 70°
2026-05-04 10:47 33.56915 -115.75096 36142 ft 557 kts 71°
2026-05-04 10:47 33.58180 -115.70711 36406 ft 556 kts 71°
2026-05-04 10:47 33.59445 -115.66325 36558 ft 557 kts 71°
2026-05-04 10:49 33.61234 -115.34733 36846 ft 526 kts 97°
2026-05-04 10:50 33.60992 -115.26010 36876 ft 524 kts 96°
2026-05-04 10:51 33.60150 -114.94907 36859 ft 540 kts 96°
2026-05-04 10:52 33.60021 -114.90401 36870 ft 541 kts 96°
2026-05-04 10:52 33.59759 -114.81397 36708 ft 540 kts 96°
2026-05-04 10:54 33.54850 -114.51682 31649 ft 518 kts 111°
2026-05-04 10:54 33.54011 -114.47482 30821 ft 518 kts 110°
2026-05-04 10:56 33.48407 -114.18862 25954 ft 471 kts 110°
2026-05-04 10:56 33.47657 -114.15093 25572 ft 460 kts 111°
2026-05-04 10:56 33.46924 -114.11409 25210 ft 450 kts 111°
2026-05-04 10:57 33.46205 -114.07806 24837 ft 440 kts 111°
2026-05-04 10:57 33.45503 -114.04295 24586 ft 428 kts 111°
2026-05-04 10:57 33.44815 -114.00868 24335 ft 418 kts 111°
2026-05-04 10:57 33.44135 -113.97495 24108 ft 419 kts 111°
2026-05-04 10:58 33.43440 -113.94077 23891 ft 427 kts 111°
2026-05-04 10:58 33.42736 -113.90608 23620 ft 428 kts 111°
2026-05-04 10:58 33.42045 -113.87158 23324 ft 424 kts 111°
2026-05-04 10:58 33.41364 -113.83751 23005 ft 419 kts 111°
2026-05-04 10:59 33.40690 -113.80381 22760 ft 413 kts 111°
2026-05-04 10:59 33.40022 -113.77051 22488 ft 410 kts 111°
2026-05-04 10:59 33.39365 -113.73793 22227 ft 406 kts 111°
2026-05-04 10:59 33.38701 -113.70519 21945 ft 404 kts 111°
2026-05-04 11:00 33.38037 -113.67262 21703 ft 402 kts 111°
2026-05-04 11:01 33.33443 -113.44654 19851 ft 398 kts 109°
2026-05-04 11:02 33.32869 -113.41420 19519 ft 397 kts 107°
2026-05-04 11:02 33.32332 -113.38201 19254 ft 394 kts 107°
2026-05-04 11:05 33.27681 -112.95464 15792 ft 359 kts 91°
2026-05-04 11:06 33.27787 -112.92483 15562 ft 358 kts 91°
2026-05-04 11:06 33.27872 -112.89520 15333 ft 357 kts 92°
2026-05-04 11:06 33.27947 -112.86561 15100 ft 356 kts 92°
2026-05-04 11:06 33.28017 -112.83612 14881 ft 355 kts 92°
2026-05-04 11:08 33.29760 -112.63822 13286 ft 341 kts 87°
2026-05-04 11:10 33.31555 -112.44611 11677 ft 324 kts 88°
2026-05-04 11:12 33.33223 -112.26346 10228 ft 307 kts 88°
2026-05-04 11:12 33.33452 -112.23831 10026 ft 301 kts 88°
2026-05-04 11:12 33.33675 -112.21387 9818 ft 290 kts 88°
2026-05-04 11:12 33.33889 -112.19031 9598 ft 279 kts 88°
2026-05-04 11:13 33.34094 -112.16770 9454 ft 269 kts 88°
2026-05-04 11:13 33.34289 -112.14602 9275 ft 259 kts 88°
2026-05-04 11:13 33.34480 -112.12469 9095 ft 259 kts 88°
2026-05-04 11:13 33.34671 -112.10319 8952 ft 261 kts 88°
2026-05-04 11:14 33.34817 -112.08143 8714 ft 263 kts 94°
2026-05-04 11:14 33.34790 -112.05967 8420 ft 261 kts 96°
2026-05-04 11:14 33.34733 -112.03816 8191 ft 259 kts 96°
2026-05-04 11:16 33.34387 -111.88586 6032 ft 270 kts 97°
2026-05-04 11:16 33.34308 -111.86333 5686 ft 272 kts 96°
2026-05-04 11:16 33.34248 -111.84067 5401 ft 272 kts 95°
2026-05-04 11:17 33.34198 -111.81810 5167 ft 270 kts 95°
2026-05-04 11:17 33.34151 -111.79587 4977 ft 265 kts 95°
2026-05-04 11:19 33.33824 -111.65579 4905 ft 248 kts 66°
2026-05-04 11:19 33.34890 -111.64001 4902 ft 248 kts 34°
2026-05-04 11:19 33.36467 -111.63247 4918 ft 244 kts
2026-05-04 11:19 33.38148 -111.62907 4921 ft 247 kts
2026-05-04 11:20 33.39861 -111.62604 4936 ft 251 kts
2026-05-04 11:20 33.41583 -111.62311 4909 ft 249 kts
2026-05-04 11:20 33.43301 -111.62139 4890 ft 248 kts 351°
2026-05-04 11:20 33.44724 -111.62568 4926 ft 243 kts 338°
2026-05-04 11:22 33.46621 -111.71030 4637 ft 205 kts 244°
2026-05-04 11:22 33.46252 -111.72046 4589 ft 198 kts 243°
2026-05-04 11:23 33.45699 -111.73529 4477 ft 195 kts 243°
2026-05-04 11:23 33.45164 -111.74976 4368 ft 187 kts 243°
2026-05-04 11:24 33.42918 -111.83730 3732 ft 185 kts 265°
2026-05-04 11:25 33.42904 -111.85220 3520 ft 180 kts 265°
2026-05-04 11:25 33.42899 -111.86694 3284 ft 173 kts 266°
2026-05-04 11:25 33.42898 -111.88098 3061 ft 164 kts 265°
2026-05-04 11:26 33.42892 -111.90828 2642 ft 164 kts 265°
2026-05-04 11:27 33.42884 -111.99990 1192 ft 151 kts 270°
2026-05-04 11:28 33.42884 -112.01150 1128 ft 115 kts 270°
2026-05-04 11:28 33.42886 -112.01848 1126 ft 53 kts 270°
2026-05-04 11:28 33.42909 -112.02106 1116 ft 19 kts 294°
2026-05-04 11:28 33.42973 -112.02152 1119 ft 11 kts 24°
2026-05-04 11:29 33.42995 -112.02070 1122 ft 11 kts 89°
2026-05-04 11:29 33.42995 -112.01982 1119 ft 10 kts 90°
2026-05-04 11:29 33.42995 -112.01896 1119 ft 10 kts 90°
2026-05-04 11:29 33.42995 -112.01806 1119 ft 12 kts 90°
2026-05-04 11:31 33.42994 -112.00725 1120 ft 24 kts 90°
2026-05-04 11:33 33.43489 -112.00380 1119 ft 17 kts
2026-05-04 11:33 33.43586 -112.00380 1118 ft 7 kts
2026-05-04 11:33 33.43633 -112.00380 1121 ft 6 kts 359°
2026-05-04 11:34 33.43668 -112.00380 1120 ft 4 kts 360°
2026-05-04 11:34 33.43690 -112.00379 1116 ft 3 kts
2026-05-04 11:34 33.43707 -112.00368 1116 ft 3 kts 42°
2026-05-04 11:34 33.43714 -112.00345 1119 ft 3 kts 79°
2026-05-04 11:35 33.43718 -112.00321 1123 ft 3 kts 70°
2026-05-04 11:35 33.43728 -112.00286 1121 ft 5 kts 81°
2026-05-04 11:35 33.43729 -112.00258 1123 ft 2 kts 90°
2026-05-04 11:35 33.43729 -112.00246 1123 ft 1 kts 90°
2026-05-04 11:36 33.43729 -112.00242 1123 ft 0 kts 90°